This is the latest recevied weather packets stored in our database for station/object VK3MAK-1. If no packets are shown the sender has not sent any weather packets the latest 10 day(s).
| Time | Temp. | Humidity | Pressure | Rain* | Wind** | Luminosity | Snow |
|---|---|---|---|---|---|---|---|
| 1777627804 | 20° C | 43% | 1019.3 hPa | 0 mm | 3.13 m/s, 23° | - | - |
| 1777627204 | 20° C | 43% | 1019.3 hPa | 0 mm | 3.13 m/s, 23° | - | - |
| 1777626604 | 20° C | 43% | 1019.3 hPa | 0 mm | 3.13 m/s, 23° | - | - |
| 1777626004 | 20° C | 42% | 1019.1 hPa | 0 mm | 2.68 m/s, 23° | - | - |
| 1777625403 | 20° C | 42% | 1019.1 hPa | 0 mm | 2.68 m/s, 23° | - | - |
| 1777624804 | 20° C | 42% | 1019.1 hPa | 0 mm | 2.68 m/s, 23° | - | - |
| 1777624203 | 22.78° C | 34% | 1018.9 hPa | 0 mm | 3.13 m/s, 0° | - | - |
| 1777623604 | 22.78° C | 34% | 1018.9 hPa | 0 mm | 3.13 m/s, 0° | - | - |
| 1777623004 | 22.78° C | 34% | 1018.9 hPa | 0 mm | 3.13 m/s, 0° | - | - |
| 1777622405 | 23.89° C | 31% | 1018.7 hPa | 0 mm | 4.92 m/s, 0° | - | - |
| 1777621804 | 23.89° C | 31% | 1018.7 hPa | 0 mm | 4.92 m/s, 0° | - | - |
| 1777621204 | 23.89° C | 31% | 1018.7 hPa | 0 mm | 4.92 m/s, 0° | - | - |
| 1777620603 | 25° C | 29% | 1018.8 hPa | 0 mm | 5.36 m/s, 0° | - | - |
| 1777620004 | 25° C | 29% | 1018.8 hPa | 0 mm | 5.36 m/s, 0° | - | - |
| 1777619403 | 25° C | 29% | 1018.8 hPa | 0 mm | 5.36 m/s, 0° | - | - |
| 1777618804 | 26.11° C | 27% | 1018.7 hPa | 0 mm | 5.81 m/s, 0° | - | - |
| 1777618204 | 26.11° C | 27% | 1018.7 hPa | 0 mm | 5.81 m/s, 0° | - | - |
| 1777617603 | 26.11° C | 27% | 1018.7 hPa | 0 mm | 5.81 m/s, 0° | - | - |
| 1777617004 | 26.11° C | 27% | 1019 hPa | 0 mm | 6.26 m/s, 0° | - | - |
| 1777616404 | 26.11° C | 27% | 1019 hPa | 0 mm | 6.26 m/s, 0° | - | - |
| 1777615805 | 26.11° C | 27% | 1019 hPa | 0 mm | 6.26 m/s, 0° | - | - |
| 1777615204 | 27.78° C | 25% | 1019 hPa | 0 mm | 7.15 m/s, 338° | - | - |
| 1777614603 | 27.78° C | 25% | 1019 hPa | 0 mm | 7.15 m/s, 338° | - | - |
| 1777614003 | 27.78° C | 25% | 1019 hPa | 0 mm | 7.15 m/s, 338° | - | - |
| 1777613404 | 27.78° C | 25% | 1019.1 hPa | 0 mm | 6.71 m/s, 0° | - | - |
* Rain latest hour (hover to see other rain measurements)
** Current wind speed in m/s (hover to see current wind gust speed)